Helicity
-36 -30 -1 12 21 20 -9 -46 -31 98 77 192 210 103 166 157 145 118 80 70 87 76 50 83 112 93 84 82 76 64 60 59 61 58 56 67 75 80 81 76 60 51 36 28 27 28 25 21 20
-25 -36 4 20 28 19 -15 -4 97 181 211 132 61 43 48 70 98 123 155 75 78 55 50 63 92 78 74 77 82 72 60 63 68 69 76 78 80 79 81 82 70 51 35 38 29 26 27 32 31
-33 -28 18 43 30 8 -17 18 118 135 110 115 92 58 113 146 174 156 129 105 77 43 56 56 99 81 74 71 76 75 71 70 82 86 85 94 93 92 89 84 81 59 46 34 36 29 23 33 38
26 41 47 70 -2 -25 -16 26 127 111 66 83 84 130 66 126 143 136 98 76 64 82 64 119 105 95 80 76 71 63 70 81 89 99 92 94 95 94 92 86 82 63 48 68 57 34 29 43 40
11 30 29 33 10 -9 2 13 131 130 113 50 45 53 77 77 115 125 112 70 76 88 93 72 120 111 92 84 78 72 71 77 80 94 91 91 98 94 94 98 86 70 56 63 67 51 44 40 45
30 33 41 38 14 2 7 45 119 120 79 51 53 50 49 24 75 159 145 31 34 62 42 71 102 107 105 79 83 78 76 72 75 84 90 94 98 99 99 96 97 81 61 60 69 53 58 48 48
16 36 31 30 48 16 42 59 65 109 103 45 44 87 112 51 216 201 164 41 22 5 74 31 34 71 92 100 89 101 92 76 75 78 83 97 100 98 91 95 95 94 74 71 72 83 71 51 47
28 57 46 55 38 16 15 38 100 147 110 94 131 180 113 72 141 167 151 76 70 29 47 82 -1 39 82 122 110 113 109 94 87 77 82 96 94 91 83 86 89 84 82 78 76 79 92 86 56
5 85 65 13 5 0 -4 45 115 140 140 149 105 73 102 72 121 142 127 94 68 76 3 44 117 13 78 113 119 130 119 116 111 96 90 115 110 102 87 79 86 78 76 72 74 84 82 88 98
57 99 71 3 0 28 53 100 83 65 66 87 13 58 73 63 92 116 155 128 104 79 129 7 83 103 54 106 120 133 133 131 125 112 117 114 102 106 88 93 93 103 93 74 81 88 95 104 94
43 108 39 15 36 56 126 75 119 111 110 97 117 92 88 116 167 117 91 71 77 105 92 40 1 90 93 99 167 144 159 145 131 112 122 121 121 99 104 119 121 127 110 88 87 96 113 117 86
43 61 60 34 37 73 140 129 43 61 83 83 131 159 183 195 167 142 67 63 68 80 74 69 42 30 48 98 156 153 98 113 124 125 124 127 133 130 127 113 171 145 144 126 104 110 111 108 107
97 94 76 62 55 58 94 72 54 51 79 86 82 89 121 143 176 93 114 48 67 116 176 191 149 62 54 69 104 98 98 120 98 101 98 117 151 133 123 129 141 164 115 142 113 115 117 103 106
100 121 139 150 183 99 101 99 68 61 57 81 101 94 108 142 89 97 58 86 162 188 226 192 205 198 226 89 97 102 115 104 124 126 130 103 117 125 120 123 141 168 171 173 119 99 126 120 108
85 83 116 120 108 115 61 85 118 75 62 72 82 77 86 116 69 130 147 205 197 190 202 226 114 136 174 197 194 101 107 114 114 122 118 127 124 209 182 174 178 132 198 170 150 99 163 120 136
137 141 174 134 96 88 26 123 94 28 33 76 35 92 76 80 59 111 204 277 216 194 197 180 163 150 163 186 161 140 180 113 121 124 117 167 148 139 211 187 200 230 237 239 231 171 196 175 172
184 239 187 109 110 87 29 58 89 44 13 81 54 53 82 76 82 163 255 178 209 191 182 136 104 123 139 150 148 144 116 151 140 121 125 185 194 186 159 168 214 203 223 313 234 215 236 219 203
167 173 161 149 91 35 54 49 101 34 32 155 67 37 62 40 121 243 177 289 179 170 142 140 124 105 90 88 102 124 138 127 139 142 141 139 222 185 143 161 212 244 250 263 314 250 272 245 206
87 129 178 184 117 116 87 141 58 68 31 81 62 31 60 56 198 205 260 229 179 135 133 135 112 106 93 67 70 87 116 173 186 161 143 173 210 207 165 191 187 289 294 284 335 311 319 310 266
140 158 158 88 120 112 76 166 167 60 25 97 74 38 76 96 182 190 187 167 107 105 96 97 96 94 86 84 85 61 36 68 138 212 274 211 170 213 212 177 241 297 310 301 309 328 310 307 290
102 162 119 106 132 208 278 122 228 131 40 29 68 52 111 230 211 191 197 122 85 72 66 77 78 73 67 77 67 70 88 98 88 117 95 183 199 247 284 224 245 297 255 171 183 230 259 315 312
110 61 60 104 100 169 240 119 168 165 56 31 48 106 291 301 299 324 177 102 76 76 71 73 72 66 56 56 58 81 66 67 101 119 210 232 210 284 296 300 278 318 294 317 224 137 270 291 306
120 276 230 151 131 157 118 206 191 62 36 98 167 219 265 321 331 241 129 118 110 76 55 44 49 53 47 41 40 43 62 84 91 103 86 169 278 235 287 328 277 287 318 314 381 331 186 256 317
246 293 281 207 135 142 91 186 64 13 37 147 200 375 319 345 200 140 107 108 86 61 41 29 30 32 35 35 38 43 49 53 62 63 52 24 104 226 233 324 276 264 295 319 317 354 182 309 251
336 242 196 166 159 188 84 45 56 64 76 184 445 229 242 264 224 116 107 106 82 66 38 2 9 18 12 17 22 43 58 56 53 24 47 -4 -10 133 102 213 260 296 335 341 290 286 181 216 204
177 206 255 96 84 62 108 43 92 221 185 465 423 188 192 199 149 133 107 91 73 38 -12 -20 -13 6 8 16 27 57 63 75 68 58 63 31 -43 105 243 76 164 229 288 323 349 201 245 325 232
125 139 -16 -6 -29 -44 21 59 -7 5 198 226 243 147 77 137 159 135 106 51 39 6 -38 -66 -12 12 10 16 33 78 86 85 76 60 66 82 37 23 142 142 153 170 239 273 341 249 201 164 240
73 58 75 93 37 22 41 59 110 124 151 66 64 143 180 174 165 115 60 30 18 -14 -40 -40 -16 -3 12 23 42 70 103 110 63 33 63 123 75 53 102 115 116 168 206 278 263 208 187 196 244
87 60 66 55 70 44 86 14 76 230 388 284 186 143 120 102 106 74 47 28 10 -3 -6 -5 -8 -4 9 31 58 72 113 131 77 29 67 140 142 47 89 137 157 166 231 216 253 198 211 218 190
151 113 52 78 47 74 79 -1 39 8 -217 -54 22 52 12 56 65 60 55 44 36 16 19 12 2 13 23 33 48 76 90 143 132 59 91 187 205 170 58 87 150 169 213 238 220 277 261 215 261
Wind_Speed
39 32 31 37 32 28 42 37 42 32 32 27 35 40 46 44 39 25 27 41 41 22 11 3 5 3 3 4 6 8 10 13 14 15 17 19 20 22 23 23 22 21 20 20 20 21 21 21 21
35 39 34 37 32 42 43 45 30 32 27 25 37 42 40 40 30 29 38 48 44 28 13 6 7 6 3 1 2 4 6 8 10 11 14 15 16 18 19 19 19 19 18 17 17 17 18 19 19
31 30 36 33 32 35 44 43 38 35 32 37 41 32 42 37 31 33 43 47 43 33 12 7 6 9 8 6 4 2 3 5 7 8 10 11 12 14 15 15 16 16 16 15 15 16 16 16 17
32 28 32 42 42 43 63 72 37 34 34 36 42 44 34 30 35 37 42 46 42 38 28 3 3 9 10 10 7 4 1 2 4 6 6 8 9 9 11 12 12 13 13 13 14 15 15 14 15
31 37 43 46 47 42 47 65 37 37 43 39 34 41 48 32 28 33 43 44 44 42 25 9 3 10 14 13 10 8 5 2 0 2 4 6 6 5 7 8 8 9 10 10 12 13 15 15 13
38 37 51 53 52 29 33 46 40 43 45 47 52 52 53 45 28 38 45 45 39 39 23 17 11 10 13 14 13 11 9 6 3 1 3 3 3 3 3 4 5 4 5 7 10 11 14 15 12
41 56 60 62 64 61 67 73 43 43 47 51 54 49 41 42 35 45 51 48 36 32 31 17 17 17 16 17 16 14 11 9 7 5 3 2 1 1 2 1 1 1 3 3 8 8 11 14 14
35 54 66 66 70 72 68 57 47 48 54 44 45 43 42 33 42 52 56 51 40 31 32 33 18 17 17 19 20 18 15 14 11 9 7 5 6 6 6 5 4 3 1 0 6 9 10 12 12
32 53 62 54 57 68 65 59 47 55 55 49 49 48 59 58 57 58 55 50 44 31 27 29 35 20 19 20 21 21 20 19 16 14 12 9 11 10 10 8 7 6 5 5 6 9 13 14 12
36 52 44 52 71 76 74 71 63 51 52 46 46 51 50 54 56 58 55 52 43 45 24 22 25 27 23 22 20 22 24 23 23 21 17 16 16 13 12 9 9 8 9 10 10 8 8 13 19
46 56 58 62 82 87 80 66 70 71 64 54 61 60 54 50 53 53 55 52 49 40 34 25 22 22 29 30 22 23 25 26 26 24 21 20 20 21 15 14 10 13 13 20 20 17 15 13 16
74 57 62 77 77 81 86 77 63 59 67 64 61 60 57 56 55 51 52 48 49 41 41 24 20 21 21 27 32 29 26 25 27 28 26 23 24 24 23 22 17 15 17 18 19 20 18 14 12
73 79 71 69 78 68 77 65 67 64 71 65 56 56 53 50 49 47 45 46 41 39 41 39 35 28 25 28 31 30 32 31 31 28 27 25 24 26 26 23 21 19 17 17 20 20 17 16 15
82 90 95 91 85 80 82 89 65 58 58 62 63 58 50 42 42 39 37 40 37 38 43 42 47 48 44 34 33 41 44 41 36 38 33 31 31 27 28 30 27 25 23 20 20 22 21 21 18
79 91 90 84 87 91 78 112 75 67 58 59 50 47 45 40 34 35 35 36 40 40 41 43 44 46 51 52 46 39 38 43 42 40 40 38 39 41 35 36 32 33 27 25 23 28 24 26 25
95 99 116 96 83 81 63 120 71 65 58 56 53 47 39 38 31 27 30 35 40 41 42 45 49 52 53 55 56 57 56 46 47 46 40 39 38 41 44 45 44 42 34 30 28 27 29 28 28
83 113 109 130 88 93 76 103 85 67 69 53 46 44 38 29 29 28 29 33 36 40 43 47 49 51 55 58 60 64 66 65 55 49 50 43 43 43 46 49 49 48 44 43 34 30 31 34 32
108 106 112 118 100 89 91 96 82 64 50 47 46 39 33 34 28 19 27 30 36 40 45 48 51 55 59 61 61 63 64 68 69 62 54 52 47 48 46 52 55 50 50 51 43 36 33 35 33
97 106 115 115 108 107 103 94 78 63 63 48 47 48 42 32 15 19 27 31 39 43 46 51 54 57 60 60 61 62 63 70 66 68 61 63 54 51 55 54 56 54 56 52 48 45 43 39 35
92 101 108 99 97 96 101 98 93 75 74 58 57 56 45 31 20 23 29 36 39 44 48 52 55 58 61 62 67 69 70 78 81 82 80 71 64 57 55 59 61 62 63 62 54 46 48 45 36
82 87 91 96 96 105 100 102 97 96 78 72 63 56 38 25 22 26 33 38 43 44 50 54 58 62 64 66 69 71 75 78 73 76 83 79 64 65 63 67 68 68 65 59 66 50 45 45 41
77 70 83 87 83 90 71 103 103 101 92 68 54 44 19 19 20 27 35 40 44 47 51 56 61 64 66 71 72 76 78 80 83 92 85 80 68 64 66 70 73 73 68 65 58 59 52 43 45
67 68 67 72 81 85 85 74 92 84 90 73 31 21 13 14 24 29 34 40 44 50 55 59 64 68 72 74 75 78 81 82 85 86 90 83 82 67 68 68 71 75 74 78 69 58 56 54 44
37 56 62 62 68 84 55 65 92 68 45 31 25 13 13 17 20 29 35 41 48 53 58 63 67 72 74 74 78 82 86 89 84 77 77 77 80 70 66 61 62 64 65 70 72 69 70 54 44
26 43 59 53 53 69 42 43 81 53 50 28 15 14 8 14 23 34 40 45 51 57 62 67 71 75 77 78 82 85 86 84 77 73 70 76 82 83 70 67 53 50 47 50 62 66 69 40 42
20 22 39 55 60 62 39 44 38 32 21 6 11 10 5 16 25 35 42 48 56 62 67 72 75 79 80 81 85 85 83 75 70 69 67 68 75 76 50 44 40 41 43 47 54 62 62 52 48
27 18 12 67 69 61 44 29 11 14 9 7 9 14 16 21 33 41 46 52 59 65 70 73 76 80 81 82 85 86 81 77 73 78 66 57 55 82 56 45 47 43 46 50 58 66 76 73 70
14 24 32 36 49 57 42 29 31 14 14 9 9 19 30 36 44 47 50 55 60 67 70 73 74 79 81 82 83 84 82 76 77 76 73 67 37 83 61 52 50 47 46 48 49 51 64 69 61
13 17 36 41 43 46 48 36 37 21 15 15 22 32 40 43 47 52 57 60 64 69 71 73 75 79 80 81 83 84 82 81 77 73 73 72 72 62 53 48 42 40 39 44 45 51 50 49 61
33 30 26 46 45 36 46 52 32 24 20 23 28 30 34 42 53 59 63 65 69 70 71 72 75 77 80 81 82 83 81 79 77 73 72 71 71 69 68 54 47 37 34 33 38 41 47 50 48
Wind_Direction
322 333 336 327 326 323 313 318 314 325 316 327 325 314 307 306 314 340 3 342 326 341 344 333 172 148 115 88 71 64 68 66 59 61 64 71 74 72 68 61 54 51 50 54 63 72 76 78 74
327 319 325 321 314 309 309 318 326 334 348 347 324 316 311 308 323 323 327 324 322 337 339 313 250 245 233 229 20 49 52 56 57 64 67 70 76 74 70 69 64 58 47 49 50 58 67 68 69
334 332 322 319 307 299 301 327 321 329 330 320 321 322 310 313 331 320 324 321 323 325 344 344 213 246 254 266 293 327 41 62 70 70 70 75 83 81 74 74 75 75 59 48 32 26 35 53 59
339 338 322 304 301 300 291 293 322 321 324 318 310 308 314 324 317 322 324 322 323 318 317 319 252 230 254 265 273 275 295 56 80 87 76 75 86 82 79 79 80 80 66 55 28 13 18 30 40
325 319 301 301 301 305 302 290 313 314 312 314 314 306 304 319 322 325 323 325 319 315 330 325 281 239 259 262 259 269 277 270 103 90 86 88 88 80 83 89 82 72 51 50 26 13 2 7 25
310 314 299 299 301 307 305 308 316 309 305 304 300 297 299 310 322 316 317 325 327 316 326 322 306 273 249 249 248 264 274 273 259 172 124 109 103 97 84 97 95 81 57 47 23 12 359 354 11
303 297 294 297 299 301 294 291 310 305 304 302 300 299 306 308 320 316 310 318 325 324 314 316 307 290 263 253 251 252 263 267 269 257 255 270 215 270 308 314 144 78 113 47 3 12 0 349 349
304 300 295 295 295 295 294 303 310 308 300 309 307 303 299 305 319 315 308 311 317 322 311 302 300 300 269 258 257 253 257 263 266 268 272 277 287 294 289 287 274 244 219 356 347 345 346 343 339
308 297 294 299 299 299 298 303 309 304 298 298 305 297 291 298 308 308 308 311 312 321 313 302 297 289 276 262 258 257 260 264 266 272 276 281 293 293 292 283 274 255 271 296 322 331 328 329 333
294 293 294 301 299 299 300 297 304 303 299 297 299 298 296 296 300 305 306 307 309 312 312 308 296 289 281 274 259 254 261 264 266 267 274 283 288 289 286 279 266 256 268 288 302 315 324 322 320
299 287 298 300 295 295 299 300 298 297 295 296 296 297 297 299 298 302 302 305 305 311 315 308 301 286 275 274 275 263 261 263 264 262 267 272 280 286 280 287 273 281 276 296 300 308 312 314 312
292 294 295 296 299 299 295 301 297 295 296 297 296 296 297 296 298 298 297 301 302 309 313 315 300 291 278 266 269 275 268 257 260 258 260 268 273 276 279 283 278 277 287 281 291 297 297 296 300
295 297 296 298 298 297 302 297 296 291 294 295 295 294 293 293 297 299 301 298 303 307 314 314 321 306 288 277 274 272 266 262 265 263 254 256 262 270 271 273 278 272 284 284 285 288 292 292 292
298 295 294 295 298 298 296 293 295 290 295 292 291 287 289 289 293 296 300 301 305 310 309 308 306 306 304 289 282 276 277 274 268 267 267 261 271 264 267 270 270 273 275 283 282 288 287 291 296
299 294 295 293 293 290 295 287 284 295 290 288 285 287 285 288 289 291 297 305 310 310 310 312 306 305 299 295 296 285 279 279 274 268 264 255 261 273 270 272 268 269 274 273 276 285 287 290 294
295 292 290 292 294 294 286 282 290 295 287 279 279 283 281 284 287 293 302 304 309 312 313 311 307 303 300 296 293 291 289 283 278 276 267 255 253 256 267 267 269 273 273 268 271 272 281 283 291
295 289 290 288 292 290 285 283 286 286 285 284 274 279 278 276 282 291 303 306 309 314 314 311 310 306 302 298 295 290 287 285 284 276 274 264 257 259 258 260 264 260 263 274 268 268 271 280 286
293 291 290 289 293 291 287 286 283 280 286 276 280 277 271 279 281 294 301 312 317 314 313 314 313 309 304 299 297 293 290 286 283 280 275 270 261 257 255 261 264 256 255 260 263 266 268 274 279
294 292 290 290 291 293 289 294 279 276 271 274 272 271 272 273 279 299 310 319 313 312 313 313 314 313 311 307 303 300 296 289 287 282 276 276 266 258 257 258 257 259 254 253 256 263 264 269 276
295 292 292 292 293 290 290 283 278 274 275 266 265 270 265 261 275 294 310 315 312 312 317 317 317 316 313 310 305 301 298 290 286 283 282 278 267 262 258 257 258 258 257 248 248 249 260 267 265
293 292 294 294 295 288 288 280 268 275 275 273 267 268 255 242 265 294 307 311 312 315 318 318 317 316 314 313 309 305 300 296 294 287 283 280 269 262 260 260 259 258 266 260 254 253 252 261 264
299 296 294 294 293 290 293 280 267 274 272 268 262 258 219 245 285 304 309 311 315 320 321 319 318 317 316 314 312 308 305 300 295 288 287 284 277 261 259 257 259 256 258 254 261 263 259 261 264
297 308 302 297 289 290 288 284 275 274 266 261 244 225 236 274 293 309 312 315 322 323 322 322 320 317 315 314 313 311 307 303 299 294 288 286 281 263 260 254 255 256 258 257 259 257 255 257 261
308 308 306 303 289 283 278 272 263 278 272 225 215 204 243 280 311 314 319 321 321 324 325 324 322 319 318 318 316 312 307 304 303 301 296 286 283 279 259 254 253 254 256 258 254 252 253 237 249
312 315 306 298 285 285 315 287 262 293 278 216 176 199 248 299 309 309 317 322 322 323 325 325 323 319 318 318 317 313 311 310 308 305 299 288 280 280 283 251 248 247 250 252 254 255 243 244 246
288 301 305 294 289 285 306 295 289 279 262 165 192 281 331 332 318 318 320 321 321 322 323 324 322 317 316 318 316 315 318 319 315 309 300 293 282 280 276 215 243 249 250 250 244 249 249 243 258
320 291 265 287 284 291 295 311 331 309 80 238 245 284 309 337 328 326 325 324 324 324 324 323 322 318 317 315 318 319 324 324 319 308 307 293 281 277 276 263 265 264 259 254 253 255 253 256 262
303 329 307 293 290 282 299 298 307 253 266 259 245 284 303 320 328 326 328 327 326 325 324 325 324 319 317 318 318 324 326 326 318 311 311 307 284 267 269 267 266 263 260 253 248 252 254 258 260
274 279 299 303 286 287 290 300 319 312 313 303 292 305 314 326 326 324 323 324 327 325 324 325 322 321 321 319 320 326 329 320 319 317 312 301 289 275 263 257 255 257 253 255 249 251 249 247 257
301 300 304 283 286 295 287 290 304 323 324 324 318 318 334 332 325 327 324 323 323 322 323 323 322 323 323 321 324 328 331 322 320 318 313 304 293 282 266 262 260 242 243 243 244 241 250 254 258